Location: Black Swamp Observatory
(41.3920°N, 84.1250°W)
Time: 11:02:20
(UTC-05:00)

N. Korean satellite - Visible Passes

Search period start: 03 December 2022 00:00
Search period end: 13 December 2022 00:00
Orbit: 421 x 453 km, 97.3° (Epoch: 02 December)

Date Brightness Start Highest point End Pass type
(mag) Time Alt. Az. Time Alt. Az. Time Alt. Az.
03 Dec 8.5 05:23:39 10° NE 05:26:39 28° E 05:29:35 10° SSE visible
03 Dec 8.0 06:56:50 10° NNW 06:58:54 15° WNW 07:00:57 10° WSW visible
04 Dec 6.6 06:17:00 10° N 06:20:17 47° WNW 06:23:31 10° SSW visible
05 Dec 7.5 05:38:08 10° NNE 05:41:26 45° E 05:44:39 10° S visible
05 Dec 8.4 07:12:59 10° WNW 07:13:29 10° WNW 07:13:57 10° WNW visible
05 Dec 8.7 17:39:52 10° SSW 17:42:52 30° W 17:45:55 10° NNW visible
06 Dec 9.6 05:00:28 10° ENE 05:02:18 14° E 05:04:07 10° SE visible
06 Dec 7.2 06:31:53 10° N 06:34:53 29° WNW 06:37:50 10° SW visible
07 Dec 6.5 05:52:39 10° NNE 05:56:02 75° ESE 05:59:21 10° S visible
07 Dec 9.5 17:54:58 10° SW 17:57:30 20° W 18:00:03 10° NW visible
08 Dec 9.0 05:14:17 10° NE 05:16:55 21° E 05:19:31 10° SE visible
08 Dec 7.7 06:46:47 10° NNW 06:49:18 20° WNW 06:51:47 10° WSW visible
09 Dec 6.2 06:07:06 10° N 06:10:28 66° WNW 06:13:45 10° SSW visible
09 Dec 9.8 18:10:22 10° WSW 18:12:01 13° W 18:13:41 10° WNW visible
10 Dec 8.2 05:28:18 10° NNE 05:31:22 32° E 05:34:23 10° SSE visible
10 Dec 8.2 07:01:50 10° NW 07:03:33 13° WNW 07:05:15 10° W visible
11 Dec 6.7 06:21:33 10° N 06:24:43 40° WNW 06:27:51 10° SW visible
12 Dec 7.2 05:42:22 10° NNE 05:45:38 51° E 05:48:52 10° S visible
12 Dec 8.9 17:44:04 10° SSW 17:46:59 27° W 17:49:56 10° NW visible
